Meteo Giornale » Osservazioni meteo Svizzera » Ginevra-Cointrin

ore: 03:20 - Osservazioni Meteo Ginevra-Cointrin
Lat. 46° 15' N Lon. 6° 8' E Alt. 420 metri s.l.m.

molto_nuvoloso Europe/Zurich

11 °C

Molto Nuvoloso

Temp. 24 Ore

7 °C

14 °C

Sud-Ovest

14.8 Km/h

Dew point 9 °C

Umidità 87 %

Visibilità  10 Km

Il sole sorge alle ore 07:30

Il sole tramonta alle ore 19:20

Data e Ora Cielo e Fenomeni T °C DP °C Um. % Pres. hPa Vis. km Vento km/h
Oggi h: 03:20 molto_nuvoloso Molto Nuvoloso 11 9 87 1019 10 SO 14.8
Oggi h: 02:50 nuvoloso Nuvoloso 11 9 87 1019 10 SO 20.3
Oggi h: 02:20 molto_nuvoloso Molto Nuvoloso 11 9 87 1019 10 S/SO 16.7
Oggi h: 01:50 molto_nuvoloso Molto Nuvoloso 11 9 87 1019 10 SO 16.7
Oggi h: 01:20 molto_nuvoloso Molto Nuvoloso 11 9 87 1019 10 SO 14.8
Oggi h: 00:50 molto_nuvoloso Molto Nuvoloso 11 9 87 1018 10 SO 14.8
Oggi h: 00:20 molto_nuvoloso Molto Nuvoloso 11 9 87 1019 10 SO 14.8
Ieri h: 23:50 coperto_pioggia Pioggia Debole 11 9 87 1018 10 S/SO 18.5
Ieri h: 23:20 coperto_pioggia Pioggia Debole 11 10 93 1018 10 S/SO 16.7
Ieri h: 22:50 coperto_pioggia Pioggia Debole 11 10 93 1018 10 S 16.7
Ieri h: 22:20 coperto_pioggia Pioggia Debole 12 10 87 1018 10 S/SO 16.7
Ieri h: 21:50 coperto_pioggia Pioggia Debole 11 10 93 1017 10 S/SO 16.7
Ieri h: 21:20 coperto_pioggia Pioggia Debole 12 10 87 1017 10 S/SO 18.5
Ieri h: 20:50 coperto_pioggia Pioggia Debole 12 10 87 1017 10 SO 16.7
Ieri h: 20:20 coperto_pioggia Pioggia Debole 12 10 87 1016 10 O/SO 14.8
Ieri h: 19:50 coperto_pioggia Pioggia Debole 12 10 87 1016 10 S/SO 14.8
Ieri h: 19:20 coperto_pioggia Pioggia 12 10 87 1015 10 SO 13
Ieri h: 17:50 nuvoloso Rovescio nelle Vicinanze 14 9 71 1014 10 O/SO 18.5
Ieri h: 17:20 molto_nuvoloso Rovescio nelle Vicinanze 14 9 71 1014 10 O/SO 16.7
Ieri h: 16:50 molto_nuvoloso Rovescio nelle Vicinanze 14 9 71 1014 10 SO 16.7
Ieri h: 16:20 molto_nuvoloso Rovescio nelle Vicinanze 14 8 67 1013 10 O/SO 14.8
Ieri h: 15:50 molto_nuvoloso Rovescio nelle Vicinanze 14 8 67 1013 10 SO 16.7
Ieri h: 15:20 molto_nuvoloso Molto Nuvoloso 13 8 71 1013 10 SO 16.7
Ieri h: 14:50 molto_nuvoloso Rovescio nelle Vicinanze 14 9 71 1013 10 O/SO 16.7
Ieri h: 14:20 molto_nuvoloso Molto Nuvoloso 13 8 71 1013 10 O/SO 14.8
Ieri h: 13:50 molto_nuvoloso Molto Nuvoloso 12 7 71 1013 10 O/SO 14.8
Ieri h: 13:20 molto_nuvoloso Molto Nuvoloso 12 8 76 1013 10 O 11.1
Ieri h: 12:50 molto_nuvoloso Molto Nuvoloso 12 8 76 1013 10 O/SO 9.3
Ieri h: 12:20 molto_nuvoloso Molto Nuvoloso 12 7 71 1013 10 SO 9.3
Ieri h: 11:50 molto_nuvoloso Molto Nuvoloso 11 8 81 1013 10 O 7.4
Ieri h: 11:20 molto_nuvoloso Molto Nuvoloso 11 7 76 1012 10 N 3.7
Ieri h: 10:50 molto_nuvoloso Molto Nuvoloso 10 7 81 1012 10 E/SE 7.4
Ieri h: 10:20 molto_nuvoloso Molto Nuvoloso 10 7 81 1012 10 N 5.5
Ieri h: 09:50 molto_nuvoloso Molto Nuvoloso 9 7 87 1011 10 SO 7.4
Ieri h: 09:20 nuvoloso Nuvoloso 8 7 93 1011 10 N 3.7
Ieri h: 08:50 nuvoloso Nuvoloso 8 6 87 1011 10 N 5.5
Ieri h: 08:20 molto_nuvoloso Molto Nuvoloso 8 7 93 1011 10 N 3.7
Ieri h: 07:50 molto_nuvoloso Molto Nuvoloso 8 7 93 1011 10 N 3.7
Ieri h: 07:20 molto_nuvoloso Molto Nuvoloso 8 6 87 1011 10 N 3.7
Ieri h: 06:50 coperto Coperto 8 6 87 1011 10 N 1.8
Ieri h: 06:20 coperto Coperto 8 6 87 1010 10 N 1.8
Ieri h: 05:50 coperto_pioggia Pioggia Debole 7 6 93 1010 10 N 1.8
Ieri h: 05:20 coperto Coperto 7 6 93 1010 10 N 1.8
Ieri h: 04:50 molto_nuvoloso Molto Nuvoloso 7 6 93 1010 10 N 5.5
Ieri h: 04:20 molto_nuvoloso Molto Nuvoloso 7 6 93 1010 10 N 5.5
Ieri h: 03:50 molto_nuvoloso Molto Nuvoloso 7 6 93 1010 10 O/SO 7.4